[[{"header":{"parameterUnit":"m.s-1","parameterCategory":1,"la1":30.2991,"la2":30.254,"lo1":-89.0895,"lo2":-89.0444,"dy":0.0017,"dx":0.0017,"nx":28,"ny":28,"refTime":"2024-05-08T03:00:00:Z","depth":0,"parameterNumber":2,"parameterNumberName":"U-component_of_WINDS"},"data":[0,0,0,0,0,0,0,0,0,0,0,0,0,0,0,0,0,0,0,0,0,0,0,0,0,0,0,0,0,0,0,0,0,0,0,0,0,0,0,0,0,0,0,0,0,0,0,0,0,0,0,0,0,0,0,0,0,0,1.1258,1.1258,0,1.1266,1.1266,1.1267,1.1233,1.1232,1.1231,1.123,1.1238,1.1239,1.124,0,0,0,0,0,0,0,0,0,0,0,0,0,1.1212,1.1213,1.1258,1.1258,1.1258,1.1266,1.1266,1.1267,1.1233,1.1231,1.123,1.1229,1.1237,1.1239,1.124,0,0,0,0,0,0,0,0,0,0,0,0,0,1.1227,1.1213,1.1258,1.1242,1.1241,1.1266,1.1266,1.1267,1.1233,1.1231,1.123,1.1229,1.1237,1.1239,1.124,1.1281,0,0,1.1246,1.1246,0,0,0,0,0,0,0,0,1.1226,1.1229,1.1245,1.1243,1.1242,1.1247,1.1253,1.1271,1.1233,1.1236,1.123,1.1228,1.1242,1.1243,1.1248,1.1281,1.1282,1.1246,1.1247,1.1248,1.1248,0,0,0,0,0,0,0,1.1225,1.1228,1.1261,1.1245,1.1243,1.1235,1.1235,1.1256,1.1247,1.1236,1.1233,1.1235,1.1241,1.1247,1.1248,1.1282,1.1246,1.1247,1.1248,1.1249,1.1347,1.1349,0,0,0,0,0,0,1.1227,1.1228,1.1261,1.1262,1.123,1.1237,1.1237,1.1247,1.1247,1.1246,1.1236,1.1233,1.1244,1.1246,1.1248,1.1295,1.1248,1.1249,1.125,1.1346,1.1348,1.1349,0,0,0,0,0,0,1.1226,1.123,1.1261,1.1244,1.1247,1.1239,1.125,1.1248,1.1253,1.1247,1.1245,1.1243,1.1243,1.1246,1.1273,1.1294,1.125,1.1252,1.1344,1.1346,1.1349,1.1388,0,0,0,0,0,0,1.1225,1.123,1.1245,1.1245,1.1248,1.1286,1.1251,1.1249,1.1256,1.1253,1.1254,1.1252,1.1242,1.127,1.1275,1.1296,1.1253,1.1342,1.1345,1.1348,1.1385,1.1392,1.1398,0,0,0,0,0,1.1223,1.1257,1.1246,1.1251,1.1268,1.1287,1.1289,1.1277,1.1258,1.1273,1.1269,1.1252,1.1292,1.1273,1.1278,1.13,1.1341,1.1344,1.1348,1.1382,1.1391,1.1397,0,0,0,0,0,0,1.126,1.1256,1.1245,1.1279,1.1284,1.1281,1.13,1.1286,1.1296,1.1292,1.1276,1.1277,1.1306,1.1306,1.1286,1.1339,1.1313,1.1317,1.1338,1.1345,1.1352,1.135,1.1254,0,0,0,0,0,1.1273,1.1289,1.1284,1.1315,1.1318,1.1309,1.1317,1.1307,1.1311,1.1312,1.131,1.1315,1.1328,1.1337,1.1349,1.1385,1.1384,1.1403,1.1409,1.1414,1.1418,1.1436,1.1443,1.1361,1.1361,1.1361,0,0,1.1298,1.1298,1.1309,1.1322,1.1325,1.1341,1.1311,1.133,1.1341,1.1315,1.134,1.1339,1.1343,1.1374,1.1388,1.1375,1.144,1.1419,1.1423,1.1424,1.144,1.1448,1.1455,1.1364,1.1363,1.1363,0,0,1.1352,1.1355,1.138,1.1382,1.1386,1.138,1.1386,1.1385,1.1383,1.1408,1.1388,1.1402,1.1425,1.1428,1.1433,1.1488,1.1472,1.1492,1.1524,1.1542,1.1548,1.1554,1.1572,1.1579,1.1496,1.1496,1.1496,0,1.1384,1.1408,1.1394,1.1414,1.142,1.1397,1.1422,1.1425,1.1433,1.1437,1.1422,1.145,1.1451,1.1483,1.1496,1.1501,1.1506,1.1491,1.1549,1.1554,1.1559,1.1576,1.1583,1.1499,1.1498,1.1498,1.1498,0,1.1445,1.1462,1.1482,1.1489,1.1497,1.152,1.1509,1.1519,1.1509,1.1504,1.1529,1.1529,1.154,1.1547,1.1537,1.1576,1.1568,1.1551,1.1525,1.157,1.1585,1.1592,1.1502,1.1501,1.15,1.15,0,0,1.1523,1.1522,1.1529,1.1532,1.1534,1.1546,1.1567,1.1578,1.1586,1.1592,1.1608,1.1628,1.1613,1.1618,1.1608,1.1624,1.1665,1.1605,1.1605,1.1615,1.1707,1.1719,1.1727,1.1655,1.1656,1.1657,1.1707,0,1.1575,1.1611,1.1599,1.1635,1.1649,1.1628,1.1646,1.1649,1.1644,1.1656,1.1652,1.1665,1.1644,1.1647,1.1662,1.1657,1.1683,1.1654,1.1669,1.167,1.1668,1.1735,1.1748,1.1794,1.1713,1.1714,1.1715,0,1.1641,1.1649,1.1686,1.1684,1.169,1.1706,1.1714,1.1726,1.1729,1.1724,1.173,1.1717,1.1736,1.1711,1.1737,1.1717,1.1723,1.1722,1.1723,1.1723,1.1694,1.1736,1.1809,1.1815,1.1724,1.1724,1.1723,0,1.1692,1.1712,1.1736,1.1739,1.1738,1.175,1.175,1.1751,1.1758,1.1765,1.1769,1.1779,1.1784,1.1791,1.178,1.1763,1.1808,1.1782,1.1804,1.1804,1.1814,1.1813,1.1887,1.182,1.182,1.182,1.182,0,1.1751,1.1774,1.1759,1.1774,1.1799,1.1785,1.1811,1.1808,1.1809,1.1823,1.1805,1.1818,1.1804,1.1816,1.1807,1.183,1.1833,1.1829,1.1826,1.183,1.183,1.1833,1.1829,1.1822,1.1821,1.1821,1.182,0,1.1812,1.1803,1.1828,1.1825,1.1824,1.1843,1.184,1.1853,1.1848,1.1865,1.1869,1.186,1.1873,1.1863,1.1876,1.187,1.1899,1.1893,1.1898,1.1896,1.1919,1.1916,1.1996,1.2005,1.1933,1.1934,1.1935,0,1.1849,1.1866,1.1865,1.1872,1.1874,1.1887,1.1893,1.188,1.1887,1.1891,1.1904,1.1915,1.1923,1.1945,1.1939,1.1949,1.1941,1.1969,1.1943,1.1945,1.194,1.1939,1.194,1.1974,1.1975,1.1975,1.1976,0,1.1916,1.191,1.192,1.1929,1.1937,1.1943,1.1947,1.1955,1.1941,1.1951,1.1963,1.197,1.1982,1.1993,1.2001,1.2,1.1986,1.1984,1.199,1.1993,1.1995,1.1992,1.1911,1.1982,1.1982,1.1981,1.1981,1.198,1.1965,1.1979,1.1979,1.1991,1.1993,1.1997,1.2009,1.2005,1.2015,1.2024,1.2016,1.2031,1.2032,1.2041,1.2042,1.2054,1.2042,1.2051,1.2052,1.2054,1.2057,1.1994,1.2055,1.2055,1.2055,1.2055,1.2054,0,1.2029,1.2028,1.2039,1.2046,1.2055,1.204,1.2044,1.2052,1.2066,1.2068,1.2076,1.209,1.2101,1.2096,1.2105,1.2115,1.2109,1.2118,1.2116,1.2116,1.2067,1.2061,1.2123,1.2123,1.2123,1.2123,1.2123,1.2123,1.2064,1.2086,1.208,1.2103,1.2102,1.2116,1.2119,1.2123,1.2125,1.2141,1.215,1.2147,1.2146,1.2155,1.2163,1.2162,1.2165,1.2177,1.2173,1.2127,1.212,1.2113,1.2107,1.2178,1.2178,1.2221,1.2221,1.2221]},{"header":{"parameterUnit":"m.s-1","parameterCategory":1,"la1":30.2991,"la2":30.254,"lo1":-89.0895,"lo2":-89.0444,"dy":0.0017,"dx":0.0017,"nx":28,"ny":28,"refTime":"2024-05-08T03:00:00:Z","depth":0,"parameterNumber":3,"parameterNumberName":"V-component_of_WINDS"},"data":[0,0,0,0,0,0,0,0,0,0,0,0,0,0,0,0,0,0,0,0,0,0,0,0,0,0,0,0,0,0,0,0,0,0,0,0,0,0,0,0,0,0,0,0,0,0,0,0,0,0,0,0,0,0,0,0,0,0,6.8574,6.8575,0,6.8716,6.8718,6.8719,6.8693,6.869,6.8688,6.8685,6.8823,6.8829,6.8835,0,0,0,0,0,0,0,0,0,0,0,0,0,6.827,6.8276,6.8573,6.8575,6.8577,6.8716,6.8718,6.872,6.8693,6.869,6.8687,6.8684,6.8821,6.8828,6.8836,0,0,0,0,0,0,0,0,0,0,0,0,0,6.8406,6.8277,6.8573,6.8581,6.8583,6.8715,6.8718,6.872,6.8694,6.869,6.8686,6.8683,6.8819,6.8828,6.8837,6.8968,0,0,6.8864,6.8868,0,0,0,0,0,0,0,0,6.8398,6.8417,6.8578,6.858,6.8583,6.8683,6.8661,6.8803,6.8695,6.8651,6.8685,6.8681,6.8779,6.8791,6.8826,6.8975,6.8981,6.8865,6.8871,6.8874,6.8877,0,0,0,0,0,0,0,6.8389,6.8411,6.863,6.858,6.8583,6.8574,6.8589,6.8688,6.8734,6.8655,6.8653,6.8671,6.878,6.8817,6.8829,6.8983,6.8865,6.8873,6.8878,6.8882,6.9245,6.9249,0,0,0,0,0,0,6.8378,6.8403,6.8625,6.8634,6.848,6.8583,6.86,6.8655,6.8733,6.8742,6.8674,6.8669,6.8804,6.8819,6.8834,6.8993,6.8874,6.8883,6.8888,6.9241,6.9246,6.925,0,0,0,0,0,0,6.8372,6.8398,6.8619,6.8518,6.8546,6.8592,6.8654,6.8659,6.8697,6.8748,6.8755,6.8705,6.8801,6.8821,6.8935,6.8997,6.8887,6.8895,6.9236,6.9242,6.9248,6.9311,0,0,0,0,0,0,6.8363,6.8396,6.8448,6.852,6.8551,6.8721,6.8658,6.8665,6.8714,6.8709,6.8779,6.8786,6.88,6.8922,6.8944,6.9007,6.8902,6.923,6.9239,6.9246,6.9304,6.9319,6.9332,0,0,0,0,0,6.8352,6.8459,6.8451,6.8478,6.8618,6.8725,6.8742,6.8758,6.8719,6.8771,6.8803,6.8784,6.8987,6.8934,6.8959,6.9025,6.9226,6.9236,6.9245,6.9297,6.9316,6.9332,0,0,0,0,0,0,6.8391,6.8468,6.8461,6.8594,6.8654,6.872,6.8786,6.8777,6.8847,6.8839,6.8853,6.8869,6.8985,6.9016,6.8956,6.9156,6.9101,6.9115,6.9132,6.915,6.9163,6.9153,6.891,0,0,0,0,0,6.8416,6.8499,6.856,6.8672,6.8702,6.8739,6.8786,6.8794,6.8854,6.8878,6.8919,6.8977,6.9053,6.9103,6.9176,6.9308,6.9322,6.9366,6.938,6.9391,6.9404,6.9475,6.9495,6.9281,6.9281,6.9281,0,0,6.8466,6.8519,6.857,6.8681,6.8728,6.8811,6.876,6.885,6.8911,6.8891,6.9002,6.9034,6.9099,6.9223,6.9279,6.9252,6.9466,6.9403,6.9412,6.9419,6.9487,6.9507,6.9525,6.9288,6.9287,6.9286,0,0,6.8601,6.865,6.8748,6.8796,6.8869,6.8893,6.8916,6.8985,6.9006,6.9118,6.9105,6.9176,6.9307,6.9354,6.9395,6.9547,6.9532,6.957,6.9643,6.9712,6.9729,6.9744,6.9798,6.9817,6.9583,6.9583,6.9583,0,6.8654,6.8781,6.8799,6.8891,6.8939,6.8928,6.9026,6.9071,6.9162,6.9195,6.9164,6.9329,6.9372,6.9506,6.9543,6.9577,6.9602,6.9562,6.9726,6.9741,6.9755,6.9806,6.9826,6.9587,6.9587,6.9586,6.9586,0,6.8842,6.8931,6.9001,6.9093,6.9149,6.9243,6.9273,6.9327,6.9329,6.9355,6.9468,6.9519,6.9603,6.9635,6.9637,6.9769,6.975,6.9723,6.9667,6.9779,6.9828,6.9847,6.9593,6.9591,6.959,6.9589,0,0,6.9006,6.9107,6.9132,6.9173,6.9252,6.9319,6.9412,6.9496,6.9542,6.9604,6.9681,6.9793,6.9769,6.9815,6.9822,6.9882,6.9999,6.9847,6.9849,6.9873,7.0146,7.0166,7.0189,6.9989,6.9993,6.9996,7.0141,0,6.9147,6.9315,6.9333,6.9481,6.9562,6.9551,6.9632,6.9687,6.9714,6.9784,6.9812,6.9891,6.9853,6.9881,6.9941,6.9972,7.0054,6.9962,7.0058,7.0062,7.0043,7.0214,7.0236,7.037,7.016,7.0163,7.0165,0,6.9336,6.9407,6.9564,6.9632,6.9666,6.9739,6.9816,6.9885,6.9946,6.9961,7.0013,7.0012,7.0105,7.0046,7.0173,7.011,7.0151,7.0172,7.0177,7.0187,7.012,7.0227,7.0413,7.0433,7.0195,7.0193,7.0191,0,6.9438,6.9573,6.9685,6.972,6.9802,6.9853,6.9888,6.9947,6.9996,7.0063,7.0095,7.0171,7.0212,7.027,7.0288,7.0244,7.0414,7.0357,7.0427,7.0427,7.0463,7.0461,7.0658,7.049,7.049,7.0489,7.0489,0,6.9595,6.9691,6.9732,6.9801,6.9907,6.9926,7.003,7.0063,7.0115,7.0187,7.0182,7.0249,7.027,7.034,7.0354,7.0457,7.0475,7.0488,7.0491,7.0489,7.0487,7.0515,7.0506,7.0495,7.0494,7.0492,7.0492,0,6.9727,6.9759,6.988,6.9948,6.9967,7.0043,7.0099,7.0164,7.0189,7.0281,7.0303,7.0343,7.0426,7.045,7.0548,7.0558,7.0678,7.0672,7.0658,7.0658,7.0727,7.072,7.0949,7.0979,7.0792,7.0793,7.0795,0,6.9825,6.9899,6.9976,7.0026,7.0064,7.0144,7.0195,7.0215,7.0267,7.0343,7.0398,7.0481,7.0548,7.0679,7.0715,7.079,7.0786,7.0861,7.0797,7.0792,7.0786,7.0781,7.0788,7.0872,7.0874,7.0876,7.0877,0,6.9995,7.0007,7.0082,7.0163,7.0224,7.0288,7.0349,7.0389,7.0417,7.0476,7.0562,7.0614,7.0716,7.0797,7.0873,7.0906,7.0896,7.0897,7.0917,7.0916,7.0905,7.0911,7.0691,7.0892,7.089,7.0889,7.0888,7.0888,7.0113,7.0178,7.0243,7.0326,7.0374,7.0432,7.0496,7.053,7.0603,7.069,7.0696,7.0789,7.0847,7.0949,7.0986,7.1057,7.1035,7.1064,7.1071,7.1078,7.1084,7.0894,7.1071,7.107,7.107,7.107,7.1069,0,7.0282,7.0323,7.04,7.0487,7.0552,7.0539,7.0606,7.066,7.0743,7.0799,7.0866,7.0964,7.1042,7.1084,7.1162,7.1211,7.1208,7.123,7.1226,7.1234,7.11,7.1074,7.1231,7.1231,7.1231,7.1231,7.1231,7.1231,7.0378,7.0488,7.0507,7.064,7.068,7.0773,7.0812,7.0864,7.0909,7.102,7.1086,7.1114,7.1164,7.1245,7.1316,7.1326,7.1354,7.1379,7.1387,7.126,7.1244,7.1228,7.1204,7.1386,7.1386,7.1515,7.1516,7.1517]}]]